Wausau, WI

6:14 AM CST on February 21, 2018 (GMT -0600)
Wausau Downtown

Weather History for KAUW - September, 2013

Change the Weather History Date:

Wednesday, September 18, 2013

  Actual Average Record
Temperature  
Mean Temperature 65 °F 58 °F  
Max Temperature 74 °F 68 °F 88 °F (1955)
Min Temperature 56 °F 47 °F 28 °F (1916)
Degree Days  
Heating Degree Days 0 8  
Month to date heating degree days 82 97  
Since 1 July heating degree days 138 163  
Cooling Degree Days 0 1  
Month to date cooling degree days 50 27  
Year to date cooling degree days 500 402  
Growing Degree Days 14 (Base 50)    
Moisture  
Dew Point 58 °F    
Average Humidity 87    
Maximum Humidity 100    
Minimum Humidity 73    
Precipitation  
Precipitation 0.55 in 0.12 in 1.60 in (1942)
Month to date precipitation 1.85 2.33  
Year to date precipitation 29.48 24.54  
Snow  
Snow 0.00 in 0.00 in 0.00 in ()
Month to date snowfall 0.0 0.0  
Since 1 July snowfall 0.0 0.0  
Snow Depth 0.00 in    
Sea Level Pressure  
Sea Level Pressure 29.97 in    
Wind  
Wind Speed 7 mph (SSE)    
Max Wind Speed 13 mph    
Max Gust Speed 16 mph    
Visibility 5 miles    
Events Rain    
T = Trace of Precipitation, MM = Missing Value Source: NWS Daily Summary

Daily Weather History Graph

Daily Weather History Graph

Search for Another Location

Airport or City:

Trip Planner

Search our weather history database for the weather conditions in past years. The results will help you decide how hot, cold, wet, or windy it might be!

Date:

Astronomy

Sep. 18, 2013 Rise Set
Actual Time 6:41 AM CDT 7:03 PM CDT
Civil Twilight 6:11 AM CDT 7:32 PM CDT
Nautical Twilight 5:37 AM CDT 8:06 PM CDT
Astronomical Twilight 5:01 AM CDT 8:42 PM CDT
Moon 6:25 PM CDT (9/18) 5:42 AM CDT (9/18)
Length of Visible Light 13h 20m
Length of Day
12h 22m
Waxing Gibbous, 99% of the Moon is Illuminated
Sep 18
Waxing Gibbous
Sep 19
Full
Sep 26
Last Quarter
Oct 4
New
Oct 11
First Quarter

Hourly Weather History & Observations

Time (CDT) Temp. Dew Point Humidity Pressure Visibility Wind Dir Wind Speed Gust Speed Precip Events Conditions
12:41 AM 55.4 °F 55.4 °F 100% 30.06 in 5.0 mi SE 6.9 mph - 0.01 in   Overcast
12:54 AM 55.9 °F 55.0 °F 97% 30.07 in 5.0 mi SE 8.1 mph - 0.01 in   Overcast
1:03 AM 55.4 °F 55.4 °F 100% 30.06 in 5.0 mi SSE 9.2 mph - N/A   Overcast
1:11 AM 57.2 °F 55.4 °F 94% 30.05 in 3.0 mi SE 9.2 mph - 0.02 in Rain Rain
1:19 AM 55.4 °F 55.4 °F 100% 30.05 in 4.0 mi SE 8.1 mph - 0.02 in Rain Light Rain
1:34 AM 55.4 °F 55.4 °F 100% 30.05 in 3.0 mi SE 6.9 mph - 0.03 in Rain Light Rain
1:43 AM 55.4 °F 55.4 °F 100% 30.05 in 2.5 mi SE 8.1 mph - 0.05 in Rain Rain
1:54 AM 55.9 °F 55.0 °F 97% 30.06 in 2.5 mi SE 6.9 mph - 0.08 in Rain Rain
2:02 AM 55.4 °F 55.4 °F 100% 30.04 in 4.0 mi SE 8.1 mph - 0.00 in Rain Light Rain
2:35 AM 55.4 °F 55.4 °F 100% 30.04 in 3.0 mi SSE 5.8 mph - 0.05 in Rain Heavy Rain
2:42 AM 55.4 °F 55.4 °F 100% 30.05 in 2.5 mi South 4.6 mph - 0.06 in Rain Rain
2:49 AM 57.2 °F 55.4 °F 94% 30.04 in 4.0 mi South 6.9 mph - 0.06 in Rain Light Rain
2:54 AM 57.0 °F 55.0 °F 93% 30.05 in 4.0 mi SSE 6.9 mph - 0.08 in Rain Light Rain
3:06 AM 55.4 °F 55.4 °F 100% 30.03 in 2.0 mi SSE 8.1 mph - 0.08 in Rain Heavy Rain
3:15 AM 55.4 °F 55.4 °F 100% 30.02 in 2.5 mi SSE 9.2 mph - 0.11 in Rain Rain
3:23 AM 55.4 °F 55.4 °F 100% 30.02 in 2.5 mi SSE 6.9 mph - 0.15 in Rain Heavy Rain
3:30 AM 55.4 °F 55.4 °F 100% 30.02 in 2.0 mi SSE 10.4 mph - 0.19 in Rain Heavy Rain
3:44 AM 55.4 °F 55.4 °F 100% 30.01 in 2.5 mi SE 9.2 mph - 0.28 in Rain Heavy Rain
3:47 AM 55.4 °F 55.4 °F 100% 30.01 in 2.5 mi SE 10.4 mph - 0.29 in Rain Heavy Rain
3:54 AM 55.9 °F 55.0 °F 97% 30.02 in 3.0 mi SSE 9.2 mph - 0.32 in Rain Heavy Rain
4:54 AM 57.0 °F 55.0 °F 93% 30.00 in 5.0 mi SSE 9.2 mph - 0.07 in Rain Light Rain
5:54 AM 57.0 °F 55.0 °F 93% 29.99 in 5.0 mi SE 5.8 mph - 0.00 in   Overcast
6:40 AM 57.2 °F 55.4 °F 94% 29.97 in 5.0 mi SSE 8.1 mph - N/A   Overcast
6:54 AM 57.0 °F 55.0 °F 93% 29.99 in 5.0 mi SSE 6.9 mph - N/A   Overcast
7:54 AM 57.9 °F 55.9 °F 93% 29.99 in 4.0 mi SSE 9.2 mph - N/A   Overcast
8:54 AM 59.0 °F 57.0 °F 93% 29.99 in 4.0 mi SSE 6.9 mph - N/A   Overcast
9:54 AM 60.1 °F 57.0 °F 90% 29.97 in 4.0 mi SE 4.6 mph - N/A   Overcast
10:54 AM 61.0 °F 57.9 °F 90% 29.97 in 5.0 mi SE 5.8 mph - N/A   Overcast
11:54 AM 63.0 °F 60.1 °F 90% 29.95 in 4.0 mi SSE 5.8 mph - N/A   Overcast
12:54 PM 64.0 °F 61.0 °F 90% 29.94 in 4.0 mi South 9.2 mph - N/A   Overcast
1:11 PM 64.4 °F 60.8 °F 88% 29.92 in 5.0 mi South 6.9 mph - N/A   Overcast
1:54 PM 68.0 °F 62.1 °F 81% 29.91 in 7.0 mi South 6.9 mph - N/A   Overcast
2:19 PM 69.8 °F 62.6 °F 78% 29.89 in 8.0 mi SSE 6.9 mph - N/A   Overcast
2:54 PM 71.1 °F 63.0 °F 75% 29.88 in 9.0 mi SSE 8.1 mph - N/A   Overcast
3:18 PM 71.6 °F 62.6 °F 73% 29.87 in 9.0 mi SSE 10.4 mph - N/A   Mostly Cloudy
3:54 PM 72.0 °F 63.0 °F 73% 29.86 in 9.0 mi SSE 9.2 mph - N/A   Mostly Cloudy
4:54 PM 72.0 °F 64.0 °F 76% 29.85 in 9.0 mi SSE 8.1 mph - N/A   Overcast
5:22 PM 73.4 °F 64.4 °F 73% 29.84 in 9.0 mi SE 5.8 mph - N/A   Mostly Cloudy
5:54 PM 72.0 °F 64.9 °F 78% 29.84 in 8.0 mi SE 5.8 mph - N/A   Clear
6:54 PM 70.0 °F 64.9 °F 84% 29.83 in 7.0 mi SE 4.6 mph - N/A   Clear
7:54 PM 68.0 °F 64.9 °F 90% 29.85 in 7.0 mi SSE 5.8 mph - N/A   Clear
8:54 PM 66.9 °F 64.0 °F 90% 29.87 in 10.0 mi SE 4.6 mph - N/A   Clear
9:54 PM 66.0 °F 63.0 °F 90% 29.86 in 10.0 mi SSE 6.9 mph - N/A   Clear
10:54 PM 64.9 °F 63.0 °F 93% 29.86 in 10.0 mi SE 6.9 mph - N/A   Clear
11:54 PM 64.0 °F 62.1 °F 93% 29.86 in 8.0 mi SE 6.9 mph - N/A   Clear